Location: Cosy Dell
(34.2789°N, 117.4537°W)
Time: 21:12:29
(UTC+00:00)

CARTOSAT-1 - Pass Details

Date: 14 July 2020
Orbit: 617 x 618 km, 97.8° (Epoch: 13 August)

Event Time Altitude Azimuth Distance (km) Brightness Sun altitude
Exits shadow 05:15:18 49° 74° (ENE) 800 3.9 -22.3°
Drops below altitude 10° 05:19:28 10° 0° (N) 1,986 6.8 -22.9°
Sets 05:21:42 0° 355° (N) 2,896 7.9 -23.2°
